| time (UTC) | temp C | wind direction | speed KPH | gust KPH | rain 1hr cm | rain 24hr cm | rain mn cm | humidity % | barometer mb |
| 20260901231504 | 25 | 229 | 19.3 | 32.2 | 0.00 | 0.00 | 0.00 | 43 | 1021.7 |
| 20260901231004 | 25 | 196 | 12.9 | 27.4 | 0.00 | 0.00 | 0.00 | 43 | 1021.8 |
| 20260901230504 | 25 | 228 | 22.5 | 38.6 | 0.00 | 0.00 | 0.00 | 41 | 1021.9 |
| 20260901230004 | 26 | 260 | 9.7 | 16.1 | 0.00 | 0.00 | 0.00 | 39 | 1021.9 |
| 20260901224004 | 26 | 283 | 24.1 | 35.4 | 0.00 | 0.00 | 0.00 | 43 | 1021.9 |
| 20260901223504 | 25 | 214 | 6.4 | 19.3 | 0.00 | 0.00 | 0.00 | 44 | 1022.1 |
| 20260901223004 | 25 | 254 | 20.9 | 27.4 | 0.00 | 0.00 | 0.00 | 43 | 1022.0 |
| 20260901221003 | 26 | 188 | 19.3 | 22.5 | 0.00 | 0.00 | 0.00 | 40 | 1021.9 |
| 20260901220503 | 26 | 220 | 20.9 | 20.9 | 0.00 | 0.00 | 0.00 | 40 | 1022.0 |
| 20260901220004 | 26 | 213 | 9.7 | 17.7 | 0.00 | 0.00 | 0.00 | 39 | 1022.1 |
| 20260901214004 | 26 | 190 | 16.1 | 16.1 | 0.00 | 0.00 | 0.00 | 43 | 1022.1 |
| 20260901213504 | 26 | 190 | 16.1 | 16.1 | 0.00 | 0.00 | 0.00 | 43 | 1022.3 |
| 20260901213004 | 26 | 149 | 24.1 | 40.2 | 0.00 | 0.00 | 0.00 | 43 | 1022.3 |
| 20260901211003 | 24 | 157 | 6.4 | 8.0 | 0.00 | 0.00 | 0.00 | 54 | 1022.4 |
| 20260901210503 | 24 | 157 | 6.4 | 8.0 | 0.00 | 0.00 | 0.00 | 54 | 1022.3 |
| 20260901210004 | 24 | 157 | 6.4 | 8.0 | 0.00 | 0.00 | 0.00 | 54 | 1022.6 |
| 20260901204004 | 24 | 227 | 14.5 | 20.9 | 0.00 | 0.00 | 0.00 | 46 | 1022.8 |
| 20260901203504 | 24 | 227 | 14.5 | 20.9 | 0.00 | 0.00 | 0.00 | 46 | 1022.7 |
| 20260901203004 | 26 | 154 | 17.7 | 24.1 | 0.00 | 0.00 | 0.00 | 48 | 1022.6 |
| 20260901202503 | 26 | 154 | 17.7 | 24.1 | 0.00 | 0.00 | 0.00 | 48 | 1022.6 |
| 20260901202003 | 26 | 154 | 17.7 | 24.1 | 0.00 | 0.00 | 0.00 | 48 | 1022.7 |
| 20260901201504 | 26 | 154 | 17.7 | 24.1 | 0.00 | 0.00 | 0.00 | 48 | 1022.7 |
| 20260901195503 | 25 | 135 | 27.4 | 37.0 | 0.00 | 0.00 | 0.00 | 51 | 1023.0 |
| 20260901195003 | 25 | 135 | 27.4 | 37.0 | 0.00 | 0.00 | 0.00 | 51 | 1023.0 |
| 20260901194504 | 25 | 135 | 27.4 | 37.0 | 0.00 | 0.00 | 0.00 | 51 | 1022.8 |
| 20260901194004 | 25 | 135 | 27.4 | 37.0 | 0.00 | 0.00 | 0.00 | 51 | 1022.9 |
| 20260901193504 | 25 | 135 | 27.4 | 37.0 | 0.00 | 0.00 | 0.00 | 51 | 1022.9 |
| 20260901193004 | 25 | 135 | 27.4 | 37.0 | 0.00 | 0.00 | 0.00 | 51 | 1023.0 |
| 20260901192503 | 25 | 135 | 27.4 | 37.0 | 0.00 | 0.00 | 0.00 | 51 | 1023.1 |
| 20260901192003 | 25 | 135 | 27.4 | 37.0 | 0.00 | 0.00 | 0.00 | 51 | 1023.1 |
| 20260901191505 | 24 | 180 | 19.3 | 25.7 | 0.00 | 0.00 | 0.00 | 52 | 1023.0 |
| 20260901191004 | 24 | 180 | 19.3 | 25.7 | 0.00 | 0.00 | 0.00 | 52 | 1023.4 |
| 20260901190504 | 25 | 180 | 11.3 | 14.5 | 0.00 | 0.00 | 0.00 | 50 | 1023.4 |
| 20260901190004 | 25 | 180 | 11.3 | 14.5 | 0.00 | 0.00 | 0.00 | 50 | 1023.4 |
| 20260901185503 | 23 | 192 | 20.9 | 27.4 | 0.00 | 0.00 | 0.00 | 53 | 1023.7 |
| 20260901185004 | 24 | 196 | 19.3 | 25.7 | 0.00 | 0.00 | 0.00 | 54 | 1023.5 |
| 20260901184504 | 25 | 158 | 11.3 | 19.3 | 0.00 | 0.00 | 0.00 | 53 | 1023.6 |
| 20260901184003 | 24 | 147 | 25.7 | 27.4 | 0.00 | 0.00 | 0.00 | 54 | 1023.4 |
| 20260901183504 | 25 | 150 | 3.2 | 11.3 | 0.00 | 0.00 | 0.00 | 51 | 1023.5 |
| 20260901183004 | 25 | 218 | 9.7 | 20.9 | 0.00 | 0.00 | 0.00 | 52 | 1023.4 |
| 20260901180004 | 23 | 180 | 11.3 | 12.9 | 0.00 | 0.00 | 0.00 | 57 | 1023.8 |
| 20260901175503 | 23 | 180 | 11.3 | 12.9 | 0.00 | 0.00 | 0.00 | 57 | 1023.8 |
| 20260901175003 | 23 | 180 | 11.3 | 12.9 | 0.00 | 0.00 | 0.00 | 57 | 1023.8 |
| 20260901174504 | 23 | 180 | 11.3 | 12.9 | 0.00 | 0.00 | 0.00 | 57 | 1023.6 |
| 20260901174004 | 23 | 180 | 11.3 | 12.9 | 0.00 | 0.00 | 0.00 | 57 | 1023.5 |
| 20260901173504 | 23 | 180 | 11.3 | 12.9 | 0.00 | 0.00 | 0.00 | 57 | 1023.5 |
| 20260901173004 | 23 | 180 | 11.3 | 12.9 | 0.00 | 0.00 | 0.00 | 57 | 1023.4 |
| 20260901170003 | 23 | 210 | 8.0 | 8.0 | 0.00 | 0.00 | 0.00 | 57 | 1023.4 |
| 20260901165503 | 23 | 185 | 9.7 | 11.3 | 0.00 | 0.00 | 0.00 | 56 | 1023.4 |
| 20260901165004 | 22 | 207 | 9.7 | 17.7 | 0.00 | 0.00 | 0.00 | 61 | 1023.6 |
| 20260901164504 | 22 | 202 | 14.5 | 17.7 | 0.00 | 0.00 | 0.00 | 60 | 1023.4 |
| 20260901164004 | 22 | 202 | 14.5 | 17.7 | 0.00 | 0.00 | 0.00 | 60 | 1023.2 |
| 20260901163504 | 22 | 202 | 14.5 | 17.7 | 0.00 | 0.00 | 0.00 | 60 | 1023.1 |
| 20260901163003 | 22 | 202 | 14.5 | 17.7 | 0.00 | 0.00 | 0.00 | 60 | 1023.1 |
| 20260901162503 | 23 | 137 | 4.8 | 4.8 | 0.00 | 0.00 | 0.00 | 60 | 1023.2 |
| 20260901162003 | 23 | 137 | 4.8 | 4.8 | 0.00 | 0.00 | 0.00 | 60 | 1023.4 |
| 20260901160004 | 21 | 122 | 4.8 | 6.4 | 0.00 | 0.00 | 0.00 | 67 | 1022.9 |
| 20260901155504 | 21 | 122 | 4.8 | 6.4 | 0.00 | 0.00 | 0.00 | 67 | 1023.1 |
| 20260901155005 | 21 | 122 | 4.8 | 6.4 | 0.00 | 0.00 | 0.00 | 67 | 1023.0 |
| 20260901153503 | 21 | 122 | 4.8 | 6.4 | 0.00 | 0.00 | 0.00 | 67 | 1023.0 |
| 20260901153004 | 21 | 122 | 4.8 | 6.4 | 0.00 | 0.00 | 0.00 | 67 | 1023.0 |
| 20260901152504 | 21 | 122 | 4.8 | 6.4 | 0.00 | 0.00 | 0.00 | 67 | 1022.9 |
| 20260901152003 | 21 | 122 | 4.8 | 6.4 | 0.00 | 0.00 | 0.00 | 67 | 1022.9 |
| 20260901151503 | 21 | 122 | 4.8 | 6.4 | 0.00 | 0.00 | 0.00 | 67 | 1022.9 |
| 20260901151004 | 21 | 220 | 6.4 | 6.4 | 0.00 | 0.00 | 0.00 | 65 | 1023.0 |
| 20260901150504 | 21 | 118 | 4.8 | 8.0 | 0.00 | 0.00 | 0.00 | 65 | 1022.9 |
| 20260901150004 | 21 | 133 | 9.7 | 9.7 | 0.00 | 0.00 | 0.00 | 64 | 1023.0 |
| 20260901145504 | 21 | 110 | 8.0 | 8.0 | 0.00 | 0.00 | 0.00 | 62 | 1023.0 |
| 20260901145004 | 21 | 110 | 8.0 | 8.0 | 0.00 | 0.00 | 0.00 | 62 | 1023.0 |
| 20260901144504 | 20 | 86 | 3.2 | 4.8 | 0.00 | 0.00 | 0.00 | 62 | 1022.9 |
| 20260901144004 | 20 | 130 | 6.4 | 8.0 | 0.00 | 0.00 | 0.00 | 63 | 1023.0 |
| 20260901143503 | 20 | 130 | 6.4 | 8.0 | 0.00 | 0.00 | 0.00 | 63 | 1023.0 |
| 20260901143003 | 20 | 118 | 4.8 | 6.4 | 0.00 | 0.00 | 0.00 | 62 | 1022.9 |
| 20260901142504 | 20 | 70 | 3.2 | 4.8 | 0.00 | 0.00 | 0.00 | 63 | 1022.7 |
| 20260901142004 | 20 | 185 | 6.4 | 6.4 | 0.00 | 0.00 | 0.00 | 62 | 1022.7 |
| 20260901141504 | 19 | 136 | 3.2 | 9.7 | 0.00 | 0.00 | 0.00 | 63 | 1022.8 |
| 20260901141004 | 19 | 145 | 3.2 | 4.8 | 0.00 | 0.00 | 0.00 | 62 | 1022.7 |
| 20260901140503 | 19 | 146 | 3.2 | 8.0 | 0.00 | 0.00 | 0.00 | 63 | 1022.8 |
| 20260901140004 | 18 | 140 | 4.8 | 8.0 | 0.00 | 0.00 | 0.00 | 63 | 1022.9 |
| 20260901135503 | 18 | 130 | 6.4 | 8.0 | 0.00 | 0.00 | 0.00 | 64 | 1022.9 |
| 20260901135003 | 18 | 126 | 4.8 | 8.0 | 0.00 | 0.00 | 0.00 | 64 | 1022.7 |
| 20260901134503 | 17 | 181 | 6.4 | 6.4 | 0.00 | 0.00 | 0.00 | 69 | 1022.9 |
| 20260901134004 | 17 | 181 | 6.4 | 6.4 | 0.00 | 0.00 | 0.00 | 69 | 1022.9 |
| 20260901133503 | 17 | 181 | 6.4 | 6.4 | 0.00 | 0.00 | 0.00 | 69 | 1022.6 |
| 20260901133004 | 17 | 181 | 6.4 | 6.4 | 0.00 | 0.00 | 0.00 | 69 | 1022.7 |
| 20260901132504 | 17 | 181 | 6.4 | 6.4 | 0.00 | 0.00 | 0.00 | 69 | 1022.8 |
| 20260901132004 | 17 | 181 | 6.4 | 6.4 | 0.00 | 0.00 | 0.00 | 69 | 1022.6 |
| 20260901131504 | 17 | 181 | 6.4 | 6.4 | 0.00 | 0.00 | 0.00 | 69 | 1022.8 |
| 20260901131004 | 17 | 181 | 6.4 | 6.4 | 0.00 | 0.00 | 0.00 | 69 | 1022.8 |
| 20260901130504 | 17 | 181 | 6.4 | 6.4 | 0.00 | 0.00 | 0.00 | 69 | 1022.7 |
| 20260901070503 | 19 | 180 | 9.7 | 9.7 | 0.00 | 0.00 | 0.00 | 62 | 1022.4 |
| 20260901070003 | 19 | 180 | 9.7 | 9.7 | 0.00 | 0.00 | 0.00 | 62 | 1022.3 |
| 20260901065503 | 19 | 180 | 9.7 | 9.7 | 0.00 | 0.00 | 0.00 | 62 | 1022.3 |
| 20260901065004 | 19 | 180 | 9.7 | 9.7 | 0.00 | 0.00 | 0.00 | 62 | 1022.3 |
| 20260901064504 | 19 | 180 | 9.7 | 9.7 | 0.00 | 0.00 | 0.00 | 62 | 1022.3 |
| 20260901031504 | 20 | 131 | 3.2 | 3.2 | 0.00 | 0.00 | 0.00 | 65 | 1021.5 |
| 20260901031004 | 20 | 131 | 3.2 | 3.2 | 0.00 | 0.00 | 0.00 | 65 | 1021.6 |
| 20260901025003 | 20 | 131 | 3.2 | 3.2 | 0.00 | 0.00 | 0.00 | 65 | 1021.5 |
| 20260901024503 | 20 | 131 | 3.2 | 3.2 | 0.00 | 0.00 | 0.00 | 65 | 1021.5 |
| 20260901024004 | 20 | 131 | 3.2 | 3.2 | 0.00 | 0.00 | 0.00 | 65 | 1021.3 |
| 20260901023503 | 20 | 131 | 3.2 | 3.2 | 0.00 | 0.00 | 0.00 | 65 | 1021.3 |
| 20260901023003 | 20 | 131 | 3.2 | 3.2 | 0.00 | 0.00 | 0.00 | 65 | 1021.1 |
| 20260901022503 | 20 | 131 | 3.2 | 3.2 | 0.00 | 0.00 | 0.00 | 65 | 1021.1 |
| 20260901022004 | 20 | 131 | 3.2 | 3.2 | 0.00 | 0.00 | 0.00 | 65 | 1021.0 |
| 20260901021504 | 20 | 114 | 8.0 | 8.0 | 0.00 | 0.00 | 0.00 | 63 | 1021.3 |
| 20260901021004 | 20 | 114 | 8.0 | 8.0 | 0.00 | 0.00 | 0.00 | 63 | 1020.9 |
| 20260901020504 | 20 | 114 | 8.0 | 8.0 | 0.00 | 0.00 | 0.00 | 63 | 1021.0 |
| 20260901020004 | 20 | 114 | 8.0 | 8.0 | 0.00 | 0.00 | 0.00 | 63 | 1021.0 |
| 20260901015504 | 20 | 113 | 4.8 | 8.0 | 0.00 | 0.00 | 0.00 | 63 | 1021.0 |
| 20260901013503 | 21 | 170 | 8.0 | 8.0 | 0.00 | 0.00 | 0.00 | 60 | 1021.1 |
| 20260901013003 | 21 | 167 | 4.8 | 6.4 | 0.00 | 0.00 | 0.00 | 60 | 1021.1 |
| 20260901012503 | 21 | 204 | 4.8 | 4.8 | 0.00 | 0.00 | 0.00 | 61 | 1021.0 |
| 20260901012003 | 21 | 143 | 8.0 | 8.0 | 0.00 | 0.00 | 0.00 | 61 | 1021.4 |
| 20260901011504 | 21 | 118 | 6.4 | 6.4 | 0.00 | 0.00 | 0.00 | 60 | 1020.9 |
| 20260901011004 | 21 | 125 | 8.0 | 8.0 | 0.00 | 0.00 | 0.00 | 60 | 1021.1 |
| 20260901010503 | 21 | 125 | 6.4 | 8.0 | 0.00 | 0.00 | 0.00 | 58 | 1021.1 |
| 20260901010004 | 21 | 125 | 6.4 | 8.0 | 0.00 | 0.00 | 0.00 | 58 | 1021.3 |
| 20260901005503 | 21 | 125 | 6.4 | 8.0 | 0.00 | 0.00 | 0.00 | 58 | 1021.4 |
| 20260901005003 | 21 | 125 | 6.4 | 8.0 | 0.00 | 0.00 | 0.00 | 58 | 1021.0 |
| 20260901004504 | 21 | 145 | 9.7 | 11.3 | 0.00 | 0.00 | 0.00 | 58 | 1021.3 |
| 20260901004003 | 21 | 145 | 4.8 | 11.3 | 0.00 | 0.00 | 0.00 | 58 | 1021.1 |
| 20260901003503 | 21 | 130 | 4.8 | 6.4 | 0.00 | 0.00 | 0.00 | 58 | 1021.3 |
| 20260901003003 | 21 | 150 | 3.2 | 11.3 | 0.00 | 0.00 | 0.00 | 58 | 1021.4 |
| 20260901002503 | 21 | 149 | 9.7 | 11.3 | 0.00 | 0.00 | 0.00 | 58 | 1021.4 |
| 20260901002004 | 21 | 181 | 6.4 | 17.7 | 0.00 | 0.00 | 0.00 | 58 | 1021.1 |
| 20260901001504 | 22 | 161 | 9.7 | 11.3 | 0.00 | 0.00 | 0.00 | 57 | 1021.3 |
| 20260831232504 | 23 | 185 | 12.9 | 14.5 | 0.00 | 0.00 | 0.00 | 56 | 1021.5 |
| 20260831232004 | 23 | 182 | 12.9 | 19.3 | 0.00 | 0.00 | 0.00 | 56 | 1021.5 |